Weather History for Greenville, MS

Change the Weather History Date:

Friday, April 12, 2013

  Actual Average Record
Temperature  
Mean Temperature 55 °F 62 °F  
Max Temperature 70 °F 73 °F 88 °F (1925)
Min Temperature 39 °F 51 °F 35 °F (1940)
Degree Days  
Heating Degree Days 10 5  
Month to date heating degree days 100 71  
Since 1 July heating degree days 2578 2716  
Cooling Degree Days 0 2  
Month to date cooling degree days 25 15  
Year to date cooling degree days 37 37  
Growing Degree Days 4 (Base 50)    
Moisture  
Dew Point 44 °F    
Average Humidity 70    
Maximum Humidity 100    
Minimum Humidity 40    
Precipitation  
Precipitation 0.00 in 0.17 in 3.12 in (1974)
Month to date precipitation 2.36 2.08  
Year to date precipitation 19.57 16.62  
Sea Level Pressure  
Sea Level Pressure 29.95 in    
Wind  
Wind Speed 4 mph (SSW)    
Max Wind Speed 13 mph    
Max Gust Speed 16 mph    
Visibility 7 miles    
Events Fog    
T = Trace of Precipitation, MM = Missing Value Source: NWS Daily Summary

Daily Weather History Graph

Daily Weather History Graph

Search for Another Location

Airport:

Trip Planner

Search our weather history database for the weather conditions in past years. The results will help you decide how hot, cold, wet, or windy it might be!

Date:

Astronomy

Apr. 12, 2013 Rise Set
Actual Time 6:36 AM CDT 7:32 PM CDT
Civil Twilight 6:11 AM CDT 7:58 PM CDT
Nautical Twilight 5:41 AM CDT 8:28 PM CDT
Astronomical Twilight 5:10 AM CDT 8:59 PM CDT
Moon 7:53 AM CDT (4/12) 9:56 PM CDT (4/12)
Length of Visible Light 13h 46m
Length of Day
12h 55m
Waxing Crescent, 5% of the Moon is Illuminated
Apr 12
Waxing Crescent
Apr 18
First Quarter
Apr 25
Full
May 2
Last Quarter
May 9
New

Hourly Weather History & Observations

Time (CDT) Temp. Windchill Dew Point Humidity Pressure Visibility Wind Dir Wind Speed Gust Speed Precip Events Conditions
12:53 AM 43.0 °F 40.3 °F 41.0 °F 93% 29.89 in 10.0 mi SSW 4.6 mph - N/A   Clear
1:53 AM 44.1 °F 41.5 °F 43.0 °F 96% 29.88 in 9.0 mi South 4.6 mph - N/A   Clear
2:53 AM 43.0 °F 40.3 °F 41.0 °F 93% 29.89 in 10.0 mi WSW 4.6 mph - N/A   Clear
3:53 AM 42.1 °F 40.2 °F 41.0 °F 96% 29.90 in 6.0 mi WSW 3.5 mph - N/A   Clear
4:53 AM 43.0 °F 41.3 °F 42.1 °F 97% 29.91 in 9.0 mi West 3.5 mph - N/A   Clear
5:53 AM 42.1 °F - 41.0 °F 96% 29.93 in 8.0 mi Calm Calm - N/A   Clear
5:58 AM 41.0 °F - 39.2 °F 93% 29.91 in 1.8 mi Calm Calm - N/A   Clear
6:08 AM 42.8 °F - 41.0 °F 93% 29.92 in 3.0 mi Calm Calm - N/A   Clear
6:36 AM 41.0 °F 39.0 °F 41.0 °F 100% 29.93 in 1.8 mi SSW 3.5 mph - N/A   Clear
6:47 AM 39.2 °F 37.0 °F 39.2 °F 100% 29.93 in 0.2 mi SSW 3.5 mph - N/A Fog Fog
6:48 AM 39.9 °F 37.8 °F 39.0 °F 97% 29.96 in 0.2 mi SSW 3.5 mph - N/A Fog Fog
6:57 AM 41.0 °F - 41.0 °F 100% 29.94 in 1.2 mi Calm Calm - N/A   Clear
7:05 AM 41.0 °F - 41.0 °F 100% 29.94 in 0.2 mi Calm Calm - N/A Fog Fog
7:29 AM 42.8 °F - 42.8 °F 100% 29.95 in 1.0 mi Calm Calm - N/A   Clear
7:35 AM 44.6 °F - 44.6 °F 100% 29.95 in 4.0 mi Calm Calm - N/A   Clear
7:53 AM 46.9 °F - 46.0 °F 97% 29.98 in 10.0 mi Calm Calm - N/A   Clear
8:53 AM 53.1 °F - 43.0 °F 69% 29.99 in 10.0 mi Calm Calm - N/A   Clear
9:53 AM 55.9 °F - 42.1 °F 60% 30.01 in 10.0 mi SSE 3.5 mph - N/A   Clear
10:53 AM 59.0 °F - 41.0 °F 51% 30.02 in 10.0 mi South 4.6 mph - N/A   Clear
11:53 AM 62.1 °F - 44.1 °F 52% 30.01 in 10.0 mi SSW 5.8 mph - N/A   Clear
12:53 PM 64.9 °F - 42.1 °F 43% 30.00 in 10.0 mi WSW 9.2 mph - N/A   Clear
1:53 PM 66.9 °F - 44.1 °F 44% 29.98 in 10.0 mi Variable 6.9 mph - N/A   Clear
2:53 PM 68.0 °F - 46.0 °F 45% 29.97 in 10.0 mi WNW 9.2 mph - N/A   Clear
3:53 PM 69.1 °F - 46.0 °F 44% 29.95 in 10.0 mi West 9.2 mph - N/A   Clear
4:53 PM 70.0 °F - 46.0 °F 42% 29.95 in 10.0 mi WNW 4.6 mph - N/A   Clear
5:53 PM 70.0 °F - 45.0 °F 41% 29.94 in 10.0 mi West 3.5 mph - N/A   Clear
6:53 PM 68.0 °F - 46.0 °F 45% 29.94 in 10.0 mi SSW 3.5 mph - N/A   Clear
7:53 PM 60.1 °F - 52.0 °F 75% 29.95 in 10.0 mi East 3.5 mph - N/A   Clear
8:53 PM 59.0 °F - 53.1 °F 81% 29.97 in 10.0 mi SE 4.6 mph - N/A   Clear
9:53 PM 57.9 °F - 52.0 °F 81% 29.99 in 10.0 mi SE 4.6 mph - N/A   Clear
10:53 PM 57.0 °F - 50.0 °F 77% 30.01 in 10.0 mi SSE 6.9 mph - N/A   Clear
11:53 PM 57.0 °F - 52.0 °F 83% 30.01 in 10.0 mi South 4.6 mph - N/A   Clear